Weather Roundup
Issued by NWS

Home | Current Version | Previous Version | Text Only | Print | Product List | Glossary On
Versions: 1 2 3 4 5 6 7 8 9 10 11 12 13 14 15 16 17 18 19 20 21 22 23 24 25 26 27 28 29 30 31 32 33 34 35 36 37 38 39 40 41 42 43 44 45 46 47 48 49 50
000
NZUS93 KARX 042310
HRRWXR

CURRENT HOURLY OBSERVATIONS ACROSS
MUCH OF THE UPPER MISSISSIPPI VALLEY
NATIONAL WEATHER SERVICE LA CROSSE WI
600 PM CDT WED MAY 04 2016


...SOUTHEAST MINNESOTA...


CITY           SKY/WX    TMP DP  RH WIND       PRES   REMARKS
ROCHESTER      SUNNY     62  31  31 N18G28    29.91F
ROCHESTER/MAYO FAIR      62  27  25 NW13G25   29.92R
WINONA         SUNNY     63  28  27 NW16      29.90R
AUSTIN         SUNNY     63  27  25 N8G21     29.91F
ALBERT LEA     SUNNY     66  25  20 N15G22    29.93S
DODGE CENTER   SUNNY     63  25  23 N20       29.93R
PRESTON        SUNNY     60  30  31 N12G24    29.91R
OWATONNA       SUNNY     64  27  24 NW17      29.93S
FARIBAULT      SUNNY     66  28  24 N12G20    29.94R
$$

...ELSEWHERE IN MINNESOTA...


CITY           SKY/WX    TMP DP  RH WIND       PRES   REMARKS
MINNEAPOLIS    SUNNY     65  25  22 N13       29.94S
INTNL FALLS    SUNNY     60  19  20 E8        29.97F
DULUTH         SUNNY     54  27  35 SE13      29.96R
RED WING       SUNNY     66  19  16 N13G20    29.91S
REDWOOD FALLS  SUNNY     70  24  17 N10       29.96S
MANKATO        SUNNY     66  27  22 N15       29.94S
WORTHINGTON    SUNNY     66  34  30 N17       29.99F
FAIRMONT       SUNNY     68  30  24 N22       29.94S
$$

...SOUTHWEST WISCONSIN...


CITY           SKY/WX    TMP DP  RH WIND       PRES   REMARKS
LA CROSSE      SUNNY     65  24  21 N17       29.88R
PRAIRIE DU CHI SUNNY     63  25  23 N18G24    29.86S
BOSCOBEL       SUNNY     64  26  23 N16G26    29.86S
LONE ROCK      SUNNY     62  23  22 N20G32    29.85R
PLATTEVILLE    MOSUNNY   62  30  30 NW18G26   29.85R
FORT MC COY    SUNNY     63  22  21 N13       29.88R
CAMP DOUGLAS   MOSUNNY   61  27  27 N22G31    29.86R
MAUSTON-NEW LI CLEAR     61  24  24 NW14G21   29.85R
VIROQUA        FAIR      60  25  25 N18G28    29.87S
WIS DELLS      SUNNY     60  20  21 N13G20    29.84R
$$

...ELSEWHERE IN WISCONSIN...


CITY           SKY/WX    TMP DP  RH WIND       PRES   REMARKS
MILWAUKEE      PTSUNNY   43  35  73 N16G23    29.84R
MADISON        PTSUNNY   58  29  33 N16G26    29.82R
GREEN BAY      CLOUDY    53  36  52 N20G32    29.87R
EAU CLAIRE     SUNNY     63  17  17 N12G22    29.91R
BLACK RVR FLS  FAIR      62  15  15 NW15G24   29.88S
MEDFORD        SUNNY     54  32  44 N15G24    29.91R
WAUSAU         SUNNY     55  31  39 N13G24    29.88R
WIS RAPIDS     SUNNY     58  29  33 NE21G30   29.88R
MARSHFIELD     SUNNY     57  28  33 N16G28    29.88R
RICE LAKE      SUNNY     62  15  16 N12G17    29.94S
$$

...NORTHEAST IOWA...


CITY           SKY/WX    TMP DP  RH WIND       PRES   REMARKS
WATERLOO       SUNNY     65  30  27 N20G33    29.89S
DUBUQUE        PTSUNNY   60  33  36 N18G29    29.86R
DECORAH        MOSUNNY   61  30  31 N15G23    29.88S
MASON CITY     SUNNY     65  31  28 N22       29.93S
CHARLES CITY   SUNNY     66  28  24 NW21G29   29.90F
OELWEIN        SUNNY     64  28  25 N21G29    29.89S
$$

...ELSEWHERE IN IOWA...


CITY           SKY/WX    TMP DP  RH WIND       PRES   REMARKS
DES MOINES     MOSUNNY   67  30  25 NW18G30   29.94F
IOWA CITY      SUNNY     65  31  28 N20G28    29.89R
FORT DODGE     SUNNY     66  36  32 NW14G21   29.96F
MARSHALLTOWN   SUNNY     66  31  27 NW17G31   29.91S
CEDAR RAPIDS   SUNNY     64  33  31 N20       29.87S
$$

...NORTHERN ILLINOIS...


CITY           SKY/WX    TMP DP  RH WIND       PRES   REMARKS
CHICAGO-OHARE  CLOUDY    49  38  65 NE12      29.82R
CHICAGO-MIDWAY CLOUDY    49  36  61 NE10      29.83R
MOLINE         MOSUNNY   62  32  32 N14       29.84R
ROCKFORD       PTSUNNY   58  34  40 N17G23    29.84R
PEORIA         PTSUNNY   61  33  35 NW12G24   29.84S
$$

NOTE: "FAIR" INDICATES FEW OR NO CLOUDS BELOW 12,000 FEET WITH NO
SIGNIFICANT WEATHER AND/OR OBSTRUCTIONS TO VISIBILITY. WIND
SPEEDS ARE IN MILES-PER-HOUR.




USA.gov is the U.S. government's official web portal to all federal, state and local government web resources and services.